[[{"header":{"parameterUnit":"m.s-1","parameterCategory":1,"la1":30.2991,"la2":30.254,"lo1":-89.0895,"lo2":-89.0444,"dy":0.0017,"dx":0.0017,"nx":28,"ny":28,"refTime":"2024-08-14T09:00:00:Z","depth":0,"parameterNumber":2,"parameterNumberName":"U-component_of_WINDS"},"data":[0,0,0,0,0,0,0,0,0,0,0,0,0,0,0,0,0,0,0,0,0,0,0,0,0,0,0,0,0,0,0,0,0,0,0,0,0,0,0,0,0,0,0,0,0,0,0,0,0,0,0,0,0,0,0,0,0,0,2.3214,2.3216,0,2.3422,2.3424,2.3426,2.3447,2.3445,2.3443,2.3441,2.3647,2.3654,2.3661,0,0,0,0,0,0,0,0,0,0,0,0,0,2.2825,2.2832,2.3213,2.3216,2.3219,2.3421,2.3424,2.3427,2.3447,2.3445,2.3442,2.344,2.3644,2.3653,2.3662,0,0,0,0,0,0,0,0,0,0,0,0,0,2.3009,2.2835,2.3213,2.3253,2.3259,2.3421,2.3424,2.3428,2.3448,2.3445,2.3441,2.3438,2.3641,2.3652,2.3663,2.3797,0,0,2.3697,2.3702,0,0,0,0,0,0,0,0,2.2999,2.3024,2.3245,2.3251,2.3258,2.3405,2.3363,2.3551,2.3449,2.3376,2.3441,2.3437,2.3568,2.3585,2.3631,2.3806,2.3815,2.3698,2.3705,2.371,2.3713,0,0,0,0,0,0,0,2.2986,2.3015,2.3296,2.3248,2.3256,2.3258,2.3281,2.3399,2.3487,2.3382,2.3384,2.3409,2.3571,2.362,2.3636,2.3818,2.3698,2.3708,2.3715,2.3719,2.411,2.4113,0,0,0,0,0,0,2.2967,2.3004,2.3289,2.3302,2.3118,2.3268,2.3293,2.3361,2.3486,2.3502,2.3411,2.3409,2.3603,2.3623,2.3644,2.3806,2.371,2.3721,2.3727,2.4106,2.4111,2.4115,0,0,0,0,0,0,2.2958,2.2992,2.3281,2.3154,2.3191,2.3278,2.3354,2.3367,2.3416,2.3509,2.3524,2.3446,2.3601,2.3628,2.3758,2.3813,2.3726,2.3736,2.4102,2.4108,2.4113,2.4133,0,0,0,0,0,0,2.2947,2.2989,2.3043,2.3155,2.3197,2.3394,2.3357,2.3373,2.3436,2.3435,2.3545,2.356,2.3601,2.3741,2.3769,2.3827,2.3745,2.4097,2.4104,2.4111,2.4128,2.4138,2.4148,0,0,0,0,0,2.2933,2.3039,2.3045,2.308,2.3267,2.3398,2.3422,2.3469,2.3441,2.3494,2.3553,2.3556,2.3803,2.3755,2.3786,2.3848,2.4094,2.4102,2.411,2.4123,2.4136,2.4147,0,0,0,0,0,0,2.2929,2.3055,2.3063,2.3209,2.3293,2.3401,2.3469,2.3481,2.3573,2.3568,2.362,2.3644,2.3772,2.3824,2.3767,2.3982,2.3945,2.396,2.3944,2.3957,2.3967,2.3951,2.3754,0,0,0,0,0,2.2946,2.3044,2.3147,2.3266,2.3308,2.3381,2.344,2.3469,2.3557,2.3592,2.3661,2.3744,2.3839,2.3902,2.3995,2.4136,2.4158,2.4194,2.4203,2.4211,2.4223,2.4297,2.4314,2.4141,2.4141,2.4141,0,0,2.2979,2.306,2.3119,2.3267,2.3335,2.3433,2.3411,2.3516,2.3588,2.3607,2.3735,2.3788,2.3883,2.4019,2.4082,2.4065,2.4275,2.4222,2.4227,2.4235,2.4307,2.4324,2.4338,2.4147,2.4146,2.4145,0,0,2.3091,2.3164,2.3269,2.3339,2.3443,2.3491,2.3516,2.3623,2.366,2.3789,2.3805,2.389,2.4055,2.4122,2.4178,2.4313,2.4319,2.4342,2.4393,2.4466,2.4479,2.4491,2.4537,2.4553,2.4354,2.4354,2.4354,0,2.3119,2.327,2.3321,2.3426,2.3489,2.3513,2.3618,2.3682,2.3811,2.3853,2.3833,2.404,2.4106,2.4256,2.4289,2.4334,2.4362,2.4329,2.4474,2.4486,2.4498,2.4542,2.4559,2.4356,2.4356,2.4355,2.4355,0,2.3298,2.3402,2.3475,2.36,2.3672,2.3776,2.384,2.3906,2.3928,2.3977,2.4107,2.4187,2.4296,2.4335,2.4357,2.4487,2.4473,2.4463,2.4427,2.4516,2.4558,2.4575,2.4359,2.4358,2.4357,2.4357,0,0,2.3412,2.3565,2.359,2.3647,2.3763,2.3843,2.3947,2.4056,2.411,2.4198,2.4284,2.4423,2.4414,2.4477,2.4507,2.4571,2.4669,2.4553,2.4556,2.4569,2.4814,2.4819,2.4837,2.4675,2.4678,2.4681,2.4805,0,2.3535,2.3724,2.3772,2.3931,2.4026,2.405,2.414,2.422,2.4268,2.4353,2.4406,2.4502,2.4485,2.4523,2.4587,2.4644,2.4719,2.4636,2.4752,2.4755,2.4725,2.486,2.4866,2.4979,2.4822,2.4824,2.4827,0,2.3704,2.3796,2.3966,2.4069,2.411,2.4191,2.4293,2.4376,2.4465,2.4495,2.4566,2.4589,2.4695,2.4654,2.4799,2.4741,2.4791,2.4826,2.4831,2.4842,2.4795,2.4871,2.5017,2.5032,2.4853,2.4851,2.4849,0,2.3766,2.3933,2.4056,2.4104,2.4227,2.4283,2.4336,2.4423,2.4485,2.4574,2.4614,2.4713,2.4766,2.4841,2.4889,2.4856,2.5029,2.4993,2.5054,2.5052,2.5087,2.5084,2.524,2.5124,2.5124,2.5123,2.5123,0,2.3896,2.3998,2.4085,2.416,2.4274,2.4328,2.4438,2.4491,2.4568,2.4651,2.4678,2.4755,2.4815,2.49,2.4938,2.505,2.5074,2.5099,2.5108,2.5096,2.5092,2.5127,2.512,2.5128,2.5127,2.5126,2.5125,0,2.3984,2.4048,2.4182,2.4289,2.4318,2.4396,2.4486,2.4558,2.4607,2.4712,2.474,2.4816,2.4916,2.4973,2.5099,2.5124,2.5248,2.5254,2.5218,2.5221,2.5278,2.5271,2.546,2.5486,2.5355,2.5356,2.5357,0,2.4062,2.4142,2.4257,2.4316,2.4371,2.4466,2.4529,2.4584,2.4648,2.4756,2.4814,2.4916,2.5001,2.516,2.5225,2.532,2.5327,2.5386,2.5341,2.5325,2.5324,2.5318,2.5324,2.5393,2.5394,2.5395,2.5396,0,2.4193,2.422,2.4312,2.4415,2.449,2.4573,2.4655,2.4701,2.4769,2.4839,2.4944,2.501,2.5139,2.5239,2.534,2.5391,2.5404,2.541,2.5429,2.5416,2.5391,2.5402,2.5237,2.5405,2.5404,2.5404,2.5403,2.5403,2.4276,2.4347,2.4439,2.454,2.4608,2.4683,2.4756,2.4815,2.4904,2.5014,2.5041,2.515,2.5235,2.5372,2.5426,2.551,2.5498,2.5526,2.5532,2.5538,2.5538,2.538,2.5528,2.5528,2.5528,2.5528,2.5528,0,2.4406,2.4466,2.4559,2.4673,2.4752,2.4761,2.4851,2.4915,2.5012,2.5091,2.5175,2.5293,2.539,2.5462,2.5561,2.5613,2.5621,2.5637,2.5632,2.5643,2.5544,2.5517,2.5629,2.5629,2.5629,2.5629,2.5628,2.5628,2.4482,2.4601,2.4639,2.479,2.485,2.4959,2.5009,2.5078,2.5142,2.5273,2.5355,2.5403,2.5479,2.5582,2.567,2.5689,2.5722,2.5737,2.5755,2.5661,2.565,2.564,2.5614,2.5745,2.5745,2.5847,2.5848,2.5849]},{"header":{"parameterUnit":"m.s-1","parameterCategory":1,"la1":30.2991,"la2":30.254,"lo1":-89.0895,"lo2":-89.0444,"dy":0.0017,"dx":0.0017,"nx":28,"ny":28,"refTime":"2024-08-14T09:00:00:Z","depth":0,"parameterNumber":3,"parameterNumberName":"V-component_of_WINDS"},"data":[0,0,0,0,0,0,0,0,0,0,0,0,0,0,0,0,0,0,0,0,0,0,0,0,0,0,0,0,0,0,0,0,0,0,0,0,0,0,0,0,0,0,0,0,0,0,0,0,0,0,0,0,0,0,0,0,0,0,3.0453,3.0454,0,3.0539,3.0539,3.054,3.059,3.059,3.059,3.059,3.0672,3.0674,3.0676,0,0,0,0,0,0,0,0,0,0,0,0,0,3.0328,3.033,3.0453,3.0454,3.0455,3.0538,3.054,3.0541,3.059,3.059,3.059,3.059,3.0671,3.0673,3.0676,0,0,0,0,0,0,0,0,0,0,0,0,0,3.0395,3.0331,3.0453,3.049,3.0494,3.0538,3.054,3.0541,3.059,3.059,3.059,3.0591,3.067,3.0673,3.0676,3.0688,0,0,3.0685,3.0686,0,0,0,0,0,0,0,0,3.0391,3.0399,3.0483,3.0487,3.0492,3.0554,3.0525,3.059,3.059,3.0553,3.059,3.0591,3.0632,3.0638,3.0653,3.0692,3.0695,3.0685,3.0687,3.0688,3.0689,0,0,0,0,0,0,0,3.0386,3.0396,3.0487,3.0485,3.049,3.0501,3.0511,3.0538,3.0589,3.0556,3.056,3.057,3.0634,3.065,3.0655,3.0697,3.0685,3.0688,3.069,3.0691,3.0751,3.0751,0,0,0,0,0,0,3.0377,3.0392,3.0484,3.0489,3.0442,3.0503,3.0514,3.0534,3.0589,3.0598,3.057,3.0572,3.0645,3.0652,3.0658,3.0678,3.0688,3.0691,3.0693,3.0751,3.0751,3.0751,0,0,0,0,0,0,3.0374,3.0384,3.0481,3.0442,3.0455,3.0505,3.0527,3.0535,3.0551,3.06,3.0608,3.0577,3.0645,3.0654,3.0681,3.0681,3.0692,3.0695,3.0752,3.0751,3.0751,3.0715,0,0,0,0,0,0,3.037,3.0383,3.0389,3.0442,3.0457,3.0503,3.0527,3.0537,3.0557,3.0561,3.0608,3.0617,3.0646,3.0677,3.0684,3.0685,3.0697,3.0752,3.0751,3.0751,3.0716,3.0713,3.0711,0,0,0,0,0,3.0365,3.0374,3.0389,3.04,3.0466,3.0503,3.0512,3.0547,3.0557,3.0563,3.0594,3.0615,3.068,3.0679,3.0688,3.069,3.0752,3.0752,3.0751,3.0717,3.0714,3.0711,0,0,0,0,0,0,3.0317,3.0381,3.0399,3.0425,3.0458,3.0511,3.052,3.0542,3.0572,3.0574,3.0616,3.0626,3.0649,3.0672,3.067,3.0705,3.0718,3.072,3.069,3.0687,3.0684,3.0678,3.07,0,0,0,0,0,3.031,3.0337,3.039,3.0408,3.0424,3.0469,3.0487,3.0512,3.0547,3.0561,3.0594,3.0627,3.0655,3.0672,3.07,3.072,3.0731,3.0726,3.0723,3.0721,3.0721,3.0735,3.0733,3.075,3.075,3.075,0,0,3.0294,3.0333,3.0346,3.0399,3.0428,3.0454,3.0481,3.0506,3.0525,3.0564,3.0593,3.0618,3.0657,3.0681,3.0693,3.0701,3.072,3.072,3.0718,3.072,3.0734,3.0733,3.0731,3.075,3.075,3.075,0,0,3.028,3.0311,3.033,3.036,3.0404,3.0435,3.0439,3.0489,3.0509,3.0538,3.0569,3.0591,3.0638,3.0665,3.0685,3.0683,3.0703,3.069,3.0676,3.0689,3.0688,3.0687,3.0687,3.0686,3.0691,3.0691,3.0691,0,3.0254,3.0296,3.0337,3.0362,3.0384,3.0423,3.0443,3.0468,3.0519,3.0533,3.0541,3.0603,3.0631,3.0663,3.0663,3.0677,3.0683,3.0685,3.0685,3.0684,3.0684,3.0685,3.0684,3.0689,3.0689,3.0689,3.069,0,3.0263,3.0291,3.0301,3.0352,3.0376,3.0397,3.044,3.0459,3.0482,3.0511,3.0541,3.0578,3.0615,3.0624,3.0646,3.0659,3.0663,3.0677,3.0691,3.068,3.0681,3.0682,3.0686,3.0687,3.0688,3.0688,0,0,3.0219,3.0294,3.0297,3.0322,3.0375,3.0397,3.042,3.0459,3.0474,3.0508,3.0529,3.0569,3.0584,3.0606,3.0631,3.0642,3.064,3.0656,3.0658,3.0652,3.0658,3.0647,3.0646,3.0654,3.0654,3.0654,3.0655,0,3.0212,3.0259,3.0297,3.0329,3.0356,3.0395,3.0415,3.0449,3.0477,3.0503,3.0533,3.0562,3.0579,3.0593,3.0606,3.0637,3.0641,3.0638,3.0673,3.0674,3.0663,3.0647,3.0635,3.0633,3.0655,3.0655,3.0655,0,3.0211,3.0246,3.0281,3.0334,3.0346,3.0364,3.0404,3.0429,3.0468,3.0488,3.0514,3.0541,3.0567,3.0579,3.0615,3.0612,3.0629,3.0647,3.0647,3.0652,3.0664,3.0651,3.0633,3.0633,3.0656,3.0656,3.0656,0,3.0176,3.0232,3.0261,3.0281,3.0342,3.0354,3.038,3.042,3.0441,3.0475,3.049,3.0525,3.0544,3.0571,3.0606,3.0611,3.0639,3.0653,3.0656,3.0655,3.066,3.0659,3.0645,3.067,3.067,3.067,3.067,0,3.0165,3.0185,3.0247,3.0265,3.0288,3.0332,3.0354,3.0382,3.0418,3.0442,3.0476,3.0497,3.0543,3.0569,3.0597,3.0624,3.0631,3.0648,3.0655,3.0645,3.0643,3.0656,3.0657,3.067,3.067,3.067,3.067,0,3.013,3.0173,3.0207,3.0263,3.0278,3.0293,3.0341,3.0359,3.039,3.0419,3.0428,3.0475,3.0508,3.0547,3.0591,3.061,3.0635,3.0645,3.0622,3.0626,3.0627,3.0626,3.0621,3.0623,3.0645,3.0645,3.0645,0,3.0121,3.0138,3.0197,3.0216,3.0242,3.0272,3.0295,3.0338,3.036,3.0408,3.042,3.0457,3.0488,3.0538,3.0576,3.061,3.0622,3.0618,3.0627,3.0617,3.0623,3.0622,3.0624,3.0615,3.0615,3.0614,3.0614,0,3.0099,3.012,3.0153,3.0193,3.022,3.0254,3.0288,3.0302,3.0352,3.0375,3.0411,3.0435,3.0482,3.0517,3.0557,3.0582,3.0606,3.0611,3.0614,3.0603,3.059,3.0598,3.0615,3.0611,3.0611,3.0611,3.0611,3.0612,3.0077,3.0095,3.014,3.0176,3.0207,3.0239,3.026,3.0294,3.0325,3.0369,3.0392,3.0427,3.0467,3.0524,3.0549,3.0576,3.0584,3.0587,3.0588,3.0588,3.0586,3.0586,3.0583,3.0583,3.0583,3.0583,3.0583,0,3.0058,3.009,3.0123,3.0172,3.02,3.0223,3.0262,3.0284,3.0315,3.0352,3.0383,3.0424,3.0459,3.05,3.0538,3.0552,3.0564,3.056,3.056,3.0565,3.0576,3.0571,3.055,3.055,3.055,3.055,3.055,3.055,3.0052,3.0083,3.011,3.0157,3.0188,3.0225,3.0246,3.0275,3.0305,3.0351,3.0381,3.0408,3.0447,3.0488,3.0521,3.0532,3.0544,3.0538,3.0552,3.0561,3.0564,3.0567,3.0562,3.054,3.054,3.0539,3.0539,3.0539]}]]